Data No.,UTC Date,UTC Time,Latitude,Longitude,Course(deg),Temp(degC),Sal(psu)
21,2003/1/25,10:44:00,34-12.0500N,137-13.6500E,170,---,34.67
22,2003/1/25,10:45:00,34-11.8600N,137-13.6800E,170,---,34.6724
23,2003/1/25,10:46:00,34-11.5600N,137-13.7500E,170,---,34.6683
24,2003/1/25,10:47:00,34-11.2900N,137-13.8000E,170,---,34.6672
25,2003/1/25,10:48:00,34-11.0300N,137-13.8500E,170,---,34.6658
26,2003/1/25,10:49:00,34-10.8400N,137-13.8900E,171,---,34.6678
27,2003/1/25,10:50:00,34-10.5300N,137-13.9500E,170,---,34.666
28,2003/1/25,10:51:00,34-10.2800N,137-14.0000E,171,---,34.6674
29,2003/1/25,10:52:00,34-10.0800N,137-14.0400E,170,---,34.6714
30,2003/1/25,10:53:00,34-09.8000N,137-14.0900E,171,---,34.6678
31,2003/1/25,10:54:00,34-09.6000N,137-14.1300E,170,---,34.6745
32,2003/1/25,10:55:00,34-09.2900N,137-14.1800E,171,---,34.6748
33,2003/1/25,10:56:00,34-09.0300N,137-14.2300E,171,---,34.6652
34,2003/1/25,10:57:00,34-08.9100N,137-14.2600E,171,---,34.6656
35,2003/1/25,10:58:00,34-08.5400N,137-14.3200E,171,---,34.6742
36,2003/1/25,10:59:00,34-08.3000N,137-14.3700E,171,---,34.67
37,2003/1/25,11:00:00,34-08.0200N,137-14.4200E,171,---,34.6711
38,2003/1/25,11:01:00,34-07.8200N,137-14.4500E,171,---,34.6672
39,2003/1/25,11:02:00,34-07.5500N,137-14.5000E,171,---,34.6649
40,2003/1/25,11:03:00,34-07.3400N,137-14.5300E,172,---,34.672
41,2003/1/25,11:04:00,34-07.0500N,137-14.5800E,172,---,34.6757
42,2003/1/25,11:05:00,34-06.8300N,137-14.6100E,172,---,34.6731
43,2003/1/25,11:06:00,34-06.5000N,137-14.6600E,171,---,34.673
44,2003/1/25,11:07:00,34-06.2600N,137-14.7000E,172,---,34.6752
45,2003/1/25,11:08:00,34-05.9900N,137-14.7500E,172,---,34.6683
46,2003/1/25,11:09:00,34-05.7700N,137-14.7800E,172,---,34.6772
47,2003/1/25,11:10:00,34-05.4800N,137-14.8300E,172,---,34.6705
48,2003/1/25,11:11:00,34-05.2900N,137-14.8600E,172,---,34.6664
49,2003/1/25,11:12:00,34-04.9800N,137-14.9000E,172,---,34.6683
50,2003/1/25,11:13:00,34-04.7300N,137-14.9400E,172,---,34.6709
51,2003/1/25,11:14:00,34-04.4800N,137-14.9800E,173,---,34.6751
52,2003/1/25,11:15:00,34-04.2400N,137-15.0200E,173,---,34.6726
53,2003/1/25,11:16:00,34-03.9900N,137-15.0500E,172,---,34.6799
54,2003/1/25,11:17:00,34-03.7700N,137-15.0900E,173,---,34.6595
55,2003/1/25,11:18:00,34-03.5200N,137-15.1200E,173,---,34.6753
56,2003/1/25,11:19:00,34-03.2500N,137-15.1600E,173,---,34.6715
57,2003/1/25,11:20:00,34-02.9200N,137-15.2100E,173,---,34.669
58,2003/1/25,11:21:00,34-02.6600N,137-15.2400E,172,---,34.6707
59,2003/1/25,11:22:00,34-02.4400N,137-15.2800E,172,---,34.6751
60,2003/1/25,11:23:00,34-02.2100N,137-15.3200E,172,---,34.6794
61,2003/1/25,11:24:00,34-02.0400N,137-15.3400E,172,---,34.6773
62,2003/1/25,11:25:00,34-01.6900N,137-15.4000E,172,---,34.6834
63,2003/1/25,11:26:00,34-01.3700N,137-15.4400E,172,---,34.6824
64,2003/1/25,11:27:00,34-01.1300N,137-15.4900E,170,---,34.6857
65,2003/1/25,11:28:00,34-00.8600N,137-15.5400E,171,---,34.6908
66,2003/1/25,11:29:00,34-00.5800N,137-15.6100E,165,---,34.6869
67,2003/1/25,11:30:00,34-00.3900N,137-15.6800E,160,---,34.6881
68,2003/1/25,11:31:00,34-00.1200N,137-15.8000E,159,---,34.6875
69,2003/1/25,11:32:00,33-59.9300N,137-15.8900E,158,---,34.6899
70,2003/1/25,11:33:00,33-59.6500N,137-16.0200E,159,---,34.6916
71,2003/1/25,11:34:00,33-59.4100N,137-16.1200E,160,---,34.6891
72,2003/1/25,11:35:00,33-59.1500N,137-16.2300E,160,---,34.6928
73,2003/1/25,11:36:00,33-58.9100N,137-16.3300E,160,---,34.6964
74,2003/1/25,11:37:00,33-58.6800N,137-16.4300E,160,---,34.6972
75,2003/1/25,11:38:00,33-58.4100N,137-16.5400E,160,---,34.6999
76,2003/1/25,11:39:00,33-58.1100N,137-16.6700E,160,---,34.7057
77,2003/1/25,11:40:00,33-57.8700N,137-16.7700E,160,---,34.7099
78,2003/1/25,11:41:00,33-57.7200N,137-16.8300E,160,---,34.7027
79,2003/1/25,11:42:00,33-57.3900N,137-16.9700E,160,---,34.706
80,2003/1/25,11:43:00,33-57.1500N,137-17.0700E,160,---,34.7043
81,2003/1/25,11:44:00,33-56.8900N,137-17.1800E,160,---,34.7002
82,2003/1/25,11:45:00,33-56.6300N,137-17.2900E,160,---,34.6926
83,2003/1/25,11:46:00,33-56.3800N,137-17.4000E,160,---,34.6941
84,2003/1/25,11:47:00,33-56.1400N,137-17.5000E,160,---,34.6948
85,2003/1/25,11:48:00,33-55.9100N,137-17.6000E,160,---,34.6916
86,2003/1/25,11:49:00,33-55.6700N,137-17.7000E,160,---,34.6924
87,2003/1/25,11:50:00,33-55.4400N,137-17.8000E,160,---,34.6954
88,2003/1/25,11:51:00,33-55.2000N,137-17.9000E,160,---,34.6971
89,2003/1/25,11:52:00,33-54.9000N,137-18.0300E,159,---,34.6963
90,2003/1/25,11:53:00,33-54.7500N,137-18.0900E,160,---,34.6912
91,2003/1/25,11:54:00,33-54.4000N,137-18.2400E,160,---,34.6923
92,2003/1/25,11:55:00,33-54.1600N,137-18.3500E,160,---,34.6936
93,2003/1/25,11:56:00,33-54.0000N,137-18.4200E,160,---,34.6938
94,2003/1/25,11:57:00,33-53.6700N,137-18.5600E,160,---,34.6821
95,2003/1/25,11:58:00,33-53.4500N,137-18.6500E,161,---,34.6877
96,2003/1/25,11:59:00,33-53.1600N,137-18.7700E,161,---,34.6803
97,2003/1/25,12:00:00,33-52.9100N,137-18.8700E,161,---,34.6804
98,2003/1/25,12:01:00,33-52.6900N,137-18.9600E,161,---,34.6823
99,2003/1/25,12:02:00,33-52.5500N,137-19.0200E,160,---,34.6828
100,2003/1/25,12:03:00,33-52.1600N,137-19.1800E,160,---,34.6865
101,2003/1/25,12:04:00,33-51.9300N,137-19.2800E,160,---,34.6883
102,2003/1/25,12:05:00,33-51.6500N,137-19.4000E,160,---,34.6871
103,2003/1/25,12:06:00,33-51.4200N,137-19.4900E,160,---,34.6844
104,2003/1/25,12:07:00,33-51.1800N,137-19.5900E,160,---,34.684
105,2003/1/25,12:08:00,33-50.9200N,137-19.7100E,160,---,34.6852
106,2003/1/25,12:09:00,33-50.8600N,137-19.7300E,159,---,34.6829
107,2003/1/25,12:10:00,33-50.5100N,137-19.8900E,159,---,34.6833
108,2003/1/25,12:11:00,33-50.2300N,137-20.0100E,159,---,34.6799
109,2003/1/25,12:12:00,33-49.9500N,137-20.1300E,159,---,34.6896
110,2003/1/25,12:13:00,33-49.7500N,137-20.2200E,159,---,34.6932
111,2003/1/25,12:14:00,33-49.5100N,137-20.3200E,160,---,34.6961
112,2003/1/25,12:15:00,33-49.2100N,137-20.4500E,160,---,34.6922
113,2003/1/25,12:16:00,33-48.9500N,137-20.5600E,160,---,34.6914
114,2003/1/25,12:17:00,33-48.7200N,137-20.6500E,161,---,34.6975
115,2003/1/25,12:18:00,33-48.4500N,137-20.7600E,161,---,34.6864
116,2003/1/25,12:19:00,33-48.2800N,137-20.8300E,160,---,34.6881
117,2003/1/25,12:20:00,33-47.9800N,137-20.9600E,160,---,34.6853
118,2003/1/25,12:21:00,33-47.7500N,137-21.0500E,160,---,34.6858
119,2003/1/25,12:22:00,33-47.4900N,137-21.1600E,160,---,34.6871
120,2003/1/25,12:23:00,33-47.4700N,137-21.1700E,161,---,34.691
121,2003/1/25,12:24:00,33-46.9800N,137-21.3600E,161,---,34.6924
122,2003/1/25,12:25:00,33-46.7500N,137-21.4500E,161,---,34.6942
123,2003/1/25,12:26:00,33-46.4900N,137-21.5500E,161,---,34.6946
124,2003/1/25,12:27:00,33-46.2600N,137-21.6500E,161,---,34.693
125,2003/1/25,12:28:00,33-46.0500N,137-21.7300E,161,---,34.7038
126,2003/1/25,12:29:00,33-45.8400N,137-21.8200E,161,---,34.6973
127,2003/1/25,12:30:00,33-45.6100N,137-21.9100E,161,---,34.6983
128,2003/1/25,12:31:00,33-45.2700N,137-22.0500E,160,---,34.6961
129,2003/1/25,12:32:00,33-45.0600N,137-22.1400E,161,---,34.6954
130,2003/1/25,12:33:00,33-44.8100N,137-22.2400E,161,---,34.6942
131,2003/1/25,12:34:00,33-44.6200N,137-22.3100E,161,---,34.6871
132,2003/1/25,12:35:00,33-44.3100N,137-22.4300E,161,---,34.6936
133,2003/1/25,12:36:00,33-44.1400N,137-22.5000E,161,---,34.688
134,2003/1/25,12:37:00,33-43.8200N,137-22.6300E,161,---,34.6966
135,2003/1/25,12:38:00,33-43.5600N,137-22.7300E,161,---,34.6928
136,2003/1/25,12:39:00,33-43.4000N,137-22.7900E,161,---,34.6937
137,2003/1/25,12:40:00,33-43.1400N,137-22.9000E,160,---,34.6902
138,2003/1/25,12:41:00,33-42.9000N,137-23.0000E,160,---,34.6992
139,2003/1/25,12:42:00,33-42.5800N,137-23.1400E,159,---,34.6926
140,2003/1/25,12:43:00,33-42.4400N,137-23.1900E,159,---,34.6951
141,2003/1/25,12:44:00,33-42.0900N,137-23.3500E,160,---,34.6957
142,2003/1/25,12:45:00,33-41.9600N,137-23.4100E,160,---,34.6917
143,2003/1/25,12:46:00,33-41.6200N,137-23.5600E,159,---,34.6974
144,2003/1/25,12:47:00,33-41.3900N,137-23.6700E,159,---,34.6934
145,2003/1/25,12:48:00,33-41.1500N,137-23.7700E,159,---,34.6922
146,2003/1/25,12:49:00,33-40.9000N,137-23.8800E,159,---,34.6929
147,2003/1/25,12:50:00,33-40.6600N,137-23.9900E,159,---,34.6942
148,2003/1/25,12:51:00,33-40.4100N,137-24.1000E,160,---,34.6952
150,2003/1/25,12:53:00,33-39.9300N,137-24.3100E,159,---,34.6974
151,2003/1/25,12:54:00,33-39.6800N,137-24.4200E,159,---,34.7055
152,2003/1/25,12:55:00,33-39.5100N,137-24.4900E,159,---,34.7004
153,2003/1/25,12:56:00,33-39.2800N,137-24.5900E,159,---,34.6941
154,2003/1/25,12:57:00,33-39.1000N,137-24.6700E,159,---,34.705
155,2003/1/25,12:58:00,33-38.7500N,137-24.8300E,159,---,34.7017
156,2003/1/25,12:59:00,33-38.4900N,137-24.9400E,159,---,34.699
157,2003/1/25,13:00:00,33-38.2400N,137-25.0500E,160,---,34.7043
158,2003/1/25,13:01:00,33-38.1400N,137-25.0900E,160,---,34.7029
159,2003/1/25,13:02:00,33-37.7400N,137-25.2600E,161,---,34.7031
160,2003/1/25,13:03:00,33-37.5200N,137-25.3500E,161,---,34.7042
161,2003/1/25,13:04:00,33-37.2900N,137-25.4400E,161,---,34.7083
162,2003/1/25,13:05:00,33-37.0100N,137-25.5600E,160,---,34.7123
163,2003/1/25,13:06:00,33-36.7700N,137-25.6600E,160,---,34.7046
164,2003/1/25,13:07:00,33-36.5100N,137-25.7700E,160,---,34.703
165,2003/1/25,13:08:00,33-36.3100N,137-25.8600E,160,---,34.702
166,2003/1/25,13:09:00,33-36.0100N,137-25.9800E,161,---,34.6993
167,2003/1/25,13:10:00,33-35.7600N,137-26.0900E,161,---,34.6963
168,2003/1/25,13:11:00,33-35.5400N,137-26.1800E,160,---,34.6992
169,2003/1/25,13:12:00,33-35.2900N,137-26.2800E,160,---,34.6912
170,2003/1/25,13:13:00,33-35.1200N,137-26.3500E,161,---,34.6879
171,2003/1/25,13:14:00,33-34.7800N,137-26.4900E,161,---,34.6902
172,2003/1/25,13:15:00,33-34.5500N,137-26.5900E,159,---,34.6969
173,2003/1/25,13:16:00,33-34.3400N,137-26.6800E,160,---,34.6985
174,2003/1/25,13:17:00,33-34.0500N,137-26.8100E,161,---,34.6967
175,2003/1/25,13:18:00,33-33.8200N,137-26.9000E,160,---,34.6978
176,2003/1/25,13:19:00,33-33.5800N,137-27.0100E,158,---,34.6979
177,2003/1/25,13:20:00,33-33.3900N,137-27.1000E,158,---,34.7007
178,2003/1/25,13:21:00,33-33.1400N,137-27.2100E,159,---,34.6877
179,2003/1/25,13:22:00,33-32.9400N,137-27.3000E,159,---,34.6724
180,2003/1/25,13:23:00,33-32.6500N,137-27.4200E,159,---,34.6713
181,2003/1/25,13:24:00,33-32.4100N,137-27.5300E,160,---,34.6682
182,2003/1/25,13:25:00,33-32.1200N,137-27.6600E,159,---,34.6691
183,2003/1/25,13:26:00,33-31.8900N,137-27.7600E,158,---,34.6707
184,2003/1/25,13:27:00,33-31.6800N,137-27.8600E,158,---,34.6662
185,2003/1/25,13:28:00,33-31.4100N,137-27.9900E,158,---,34.67
186,2003/1/25,13:29:00,33-31.1600N,137-28.1100E,156,---,34.6703
187,2003/1/25,13:30:00,33-30.9400N,137-28.2200E,157,---,34.6629
188,2003/1/25,13:31:00,33-30.7100N,137-28.3300E,158,---,34.6663
189,2003/1/25,13:32:00,33-30.5100N,137-28.4300E,157,---,34.6643
190,2003/1/25,13:33:00,33-30.2800N,137-28.5400E,156,---,34.6618
191,2003/1/25,13:34:00,33-29.9900N,137-28.7100E,153,---,34.6606
192,2003/1/25,13:35:00,33-29.7700N,137-28.8400E,153,---,34.6744
193,2003/1/25,13:36:00,33-29.5800N,137-28.9600E,152,---,34.6865
194,2003/1/25,13:37:00,33-29.2800N,137-29.1300E,154,---,34.6996
195,2003/1/25,13:38:00,33-29.0600N,137-29.2400E,158,---,34.7175
196,2003/1/25,13:39:00,33-28.8700N,137-29.3200E,162,---,34.7202
197,2003/1/25,13:40:00,33-28.6400N,137-29.3900E,164,---,34.7282
198,2003/1/25,13:41:00,33-28.3500N,137-29.4800E,165,---,34.7335
199,2003/1/25,13:42:00,33-28.1700N,137-29.5400E,165,---,34.7368
200,2003/1/25,13:43:00,33-27.8700N,137-29.6300E,167,---,34.737
201,2003/1/25,13:44:00,33-27.6300N,137-29.7000E,165,---,34.7465
202,2003/1/25,13:45:00,33-27.4400N,137-29.7500E,166,---,34.7479
203,2003/1/25,13:46:00,33-27.1800N,137-29.8500E,162,---,34.7459
204,2003/1/25,13:47:00,33-26.9100N,137-29.9600E,160,---,34.7556
205,2003/1/25,13:48:00,33-26.7300N,137-30.0400E,159,---,34.7522
206,2003/1/25,13:49:00,33-26.5100N,137-30.1300E,160,---,34.754
207,2003/1/25,13:50:00,33-26.2000N,137-30.2700E,160,---,34.7529
208,2003/1/25,13:51:00,33-25.9900N,137-30.3600E,159,---,34.7634
209,2003/1/25,13:52:00,33-25.7400N,137-30.4700E,160,---,34.7612
210,2003/1/25,13:53:00,33-25.5100N,137-30.5600E,160,---,34.7626
211,2003/1/25,13:54:00,33-25.2800N,137-30.6500E,161,---,34.7553
212,2003/1/25,13:55:00,33-25.0500N,137-30.7500E,160,---,34.7548
213,2003/1/25,13:56:00,33-24.8600N,137-30.8300E,160,---,34.7574
214,2003/1/25,13:57:00,33-24.5900N,137-30.9400E,159,---,34.7628
215,2003/1/25,13:58:00,33-24.3500N,137-31.0500E,159,---,34.7683
216,2003/1/25,13:59:00,33-24.2000N,137-31.1200E,158,---,34.7744
217,2003/1/25,14:00:00,33-23.8400N,137-31.2800E,160,---,34.7817
218,2003/1/25,14:01:00,33-23.6300N,137-31.3700E,159,---,34.805
219,2003/1/25,14:02:00,33-23.4900N,137-31.4400E,160,---,34.8135
220,2003/1/25,14:03:00,33-23.2500N,137-31.5400E,160,---,34.8317
221,2003/1/25,14:04:00,33-22.9600N,137-31.6600E,161,---,34.843
222,2003/1/25,14:05:00,33-22.6500N,137-31.7800E,162,---,34.8444
223,2003/1/25,14:06:00,33-22.4200N,137-31.8700E,160,---,34.8464
224,2003/1/25,14:07:00,33-22.1700N,137-31.9700E,161,---,34.8474
225,2003/1/25,14:08:00,33-21.9300N,137-32.0700E,161,---,34.8498
226,2003/1/25,14:09:00,33-21.8300N,137-32.1100E,162,---,34.8508
227,2003/1/25,14:10:00,33-21.4700N,137-32.2500E,161,---,34.8528
228,2003/1/25,14:11:00,33-21.2900N,137-32.3100E,161,---,34.8536
229,2003/1/25,14:12:00,33-20.9700N,137-32.4300E,162,---,34.8534
230,2003/1/25,14:13:00,33-20.7700N,137-32.5200E,161,---,34.8546
231,2003/1/25,14:14:00,33-20.5300N,137-32.6000E,162,---,34.8526
232,2003/1/25,14:15:00,33-20.3300N,137-32.6800E,160,---,34.8573
233,2003/1/25,14:16:00,33-20.0300N,137-32.8000E,163,---,34.8543
234,2003/1/25,14:17:00,33-19.8700N,137-32.8600E,162,---,34.8518
235,2003/1/25,14:18:00,33-19.5700N,137-32.9800E,161,---,34.8538
236,2003/1/25,14:19:00,33-19.3600N,137-33.0500E,161,---,34.8538
237,2003/1/25,14:20:00,33-19.1000N,137-33.1500E,162,---,34.8509
238,2003/1/25,14:21:00,33-18.8300N,137-33.2500E,162,---,34.8515
239,2003/1/25,14:22:00,33-18.6700N,137-33.3100E,162,---,34.8502
240,2003/1/25,14:23:00,33-18.4000N,137-33.4100E,163,---,34.8498
241,2003/1/25,14:24:00,33-18.2400N,137-33.4700E,163,---,34.8503
242,2003/1/25,14:25:00,33-17.9500N,137-33.5700E,163,---,34.8466
243,2003/1/25,14:26:00,33-17.7600N,137-33.6400E,162,---,34.8481
244,2003/1/25,14:27:00,33-17.4500N,137-33.7500E,163,---,34.8444
245,2003/1/25,14:28:00,33-17.1600N,137-33.8600E,163,---,34.8481
246,2003/1/25,14:29:00,33-16.9300N,137-33.9500E,162,---,34.8457
247,2003/1/25,14:30:00,33-16.6800N,137-34.0400E,161,---,34.8446
248,2003/1/25,14:31:00,33-16.4500N,137-34.1400E,160,---,34.8463
249,2003/1/25,14:32:00,33-16.2500N,137-34.2200E,160,---,34.847
250,2003/1/25,14:33:00,33-15.9600N,137-34.3400E,160,---,34.849
251,2003/1/25,14:34:00,33-15.7300N,137-34.4400E,160,---,34.8478
252,2003/1/25,14:35:00,33-15.5600N,137-34.5100E,160,---,34.8487
253,2003/1/25,14:36:00,33-15.2600N,137-34.6400E,160,---,34.8501
254,2003/1/25,14:37:00,33-15.0100N,137-34.7400E,159,---,34.8498
255,2003/1/25,14:38:00,33-14.7900N,137-34.8400E,160,---,34.8495
256,2003/1/25,14:39:00,33-14.6000N,137-34.9100E,161,---,34.8384
257,2003/1/25,14:40:00,33-14.3500N,137-35.0100E,161,---,34.8453
258,2003/1/25,14:41:00,33-14.0600N,137-35.1200E,161,---,34.8399
259,2003/1/25,14:42:00,33-13.8000N,137-35.2200E,162,---,34.8401
260,2003/1/25,14:43:00,33-13.6500N,137-35.2800E,162,---,34.8398
261,2003/1/25,14:44:00,33-13.3400N,137-35.3900E,162,---,34.8373
262,2003/1/25,14:45:00,33-13.0800N,137-35.4900E,162,---,34.836
263,2003/1/25,14:46:00,33-12.8300N,137-35.5900E,161,---,34.8374
264,2003/1/25,14:47:00,33-12.6700N,137-35.6600E,159,---,34.8356
265,2003/1/25,14:48:00,33-12.3500N,137-35.7900E,159,---,34.8382
266,2003/1/25,14:49:00,33-12.1700N,137-35.8700E,160,---,34.8401
267,2003/1/25,14:50:00,33-11.9600N,137-35.9500E,160,---,34.839
268,2003/1/25,14:51:00,33-11.6400N,137-36.0900E,160,---,34.8408
269,2003/1/25,14:52:00,33-11.4200N,137-36.1900E,160,---,---
270,2003/1/25,14:53:00,33-11.1500N,137-36.3000E,160,---,34.8411
271,2003/1/25,14:54:00,33-10.9200N,137-36.4000E,160,---,34.8419
272,2003/1/25,14:55:00,33-10.7100N,137-36.4900E,160,---,34.8403
273,2003/1/25,14:56:00,33-10.4600N,137-36.5900E,160,---,34.8396
274,2003/1/25,14:57:00,33-10.2800N,137-36.6600E,161,---,34.8397
275,2003/1/25,14:58:00,33-09.9800N,137-36.7800E,161,---,34.835
276,2003/1/25,14:59:00,33-09.8200N,137-36.8400E,160,---,34.8354
277,2003/1/25,15:00:00,33-09.5500N,137-36.9500E,161,---,34.8342
278,2003/1/25,15:01:00,33-09.3100N,137-37.0500E,161,---,34.8337
279,2003/1/25,15:02:00,33-09.1100N,137-37.1300E,162,---,34.8327
280,2003/1/25,15:03:00,33-08.8500N,137-37.2300E,161,---,34.8365
281,2003/1/25,15:04:00,33-08.5400N,137-37.3500E,161,---,34.8379
282,2003/1/25,15:05:00,33-08.3500N,137-37.4200E,161,---,34.8395
283,2003/1/25,15:06:00,33-08.1000N,137-37.5200E,161,---,34.8429
284,2003/1/25,15:07:00,33-07.8100N,137-37.6400E,161,---,34.8484
285,2003/1/25,15:08:00,33-07.6100N,137-37.7200E,161,---,34.8456
286,2003/1/25,15:09:00,33-07.3500N,137-37.8200E,161,---,34.8489
287,2003/1/25,15:10:00,33-07.1400N,137-37.9000E,162,---,34.8514
288,2003/1/25,15:11:00,33-06.8700N,137-38.0000E,161,---,34.8451
289,2003/1/25,15:12:00,33-06.6200N,137-38.1000E,161,---,34.8445
290,2003/1/25,15:13:00,33-06.4000N,137-38.1800E,161,---,34.8408
291,2003/1/25,15:14:00,33-06.1500N,137-38.2900E,160,---,34.8445
292,2003/1/25,15:15:00,33-05.9300N,137-38.3800E,161,---,34.8417
293,2003/1/25,15:16:00,33-05.6800N,137-38.4800E,160,---,34.839
294,2003/1/25,15:17:00,33-05.4300N,137-38.5800E,161,---,34.8393
295,2003/1/25,15:18:00,33-05.2100N,137-38.6700E,160,---,34.8362
296,2003/1/25,15:19:00,33-04.9700N,137-38.7700E,160,---,34.8351
297,2003/1/25,15:20:00,33-04.7700N,137-38.8500E,160,---,34.8305
298,2003/1/25,15:21:00,33-04.4800N,137-38.9700E,161,---,34.8238
299,2003/1/25,15:22:00,33-04.2700N,137-39.0600E,161,---,34.8211
300,2003/1/25,15:23:00,33-04.0400N,137-39.1400E,161,---,34.8248
301,2003/1/25,15:24:00,33-03.8000N,137-39.2400E,161,---,34.8254
302,2003/1/25,15:25:00,33-03.5400N,137-39.3400E,162,---,34.8313
303,2003/1/25,15:26:00,33-03.4100N,137-39.3900E,161,---,---
304,2003/1/25,15:27:00,33-03.0300N,137-39.5400E,161,---,34.8369
305,2003/1/25,15:28:00,33-02.8200N,137-39.6200E,160,---,34.8398
306,2003/1/25,15:29:00,33-02.5700N,137-39.7300E,160,---,34.8456
307,2003/1/25,15:30:00,33-02.4100N,137-39.8000E,160,---,34.8463
308,2003/1/25,15:31:00,33-02.1100N,137-39.9300E,158,---,34.8504
309,2003/1/25,15:32:00,33-01.8700N,137-40.0400E,159,---,34.8493
310,2003/1/25,15:33:00,33-01.6100N,137-40.1600E,159,---,34.8469
311,2003/1/25,15:34:00,33-01.4500N,137-40.2400E,159,---,34.8478
312,2003/1/25,15:35:00,33-01.1600N,137-40.3600E,159,---,34.8484
313,2003/1/25,15:36:00,33-00.9100N,137-40.4700E,159,---,34.8456
314,2003/1/25,15:37:00,33-00.6400N,137-40.5900E,159,---,34.8461
315,2003/1/25,15:38:00,33-00.4100N,137-40.6900E,160,---,34.8431
316,2003/1/25,15:39:00,33-00.1800N,137-40.7900E,159,---,34.8399
317,2003/1/25,15:40:00,32-59.9600N,137-40.8900E,159,---,34.8446
318,2003/1/25,15:41:00,32-59.7000N,137-41.0000E,159,---,34.8441
319,2003/1/25,15:42:00,32-59.5300N,137-41.0700E,160,---,34.8463
320,2003/1/25,15:43:00,32-59.3600N,137-41.1500E,159,---,34.8481
321,2003/1/25,15:44:00,32-59.0100N,137-41.3000E,160,---,34.8471
322,2003/1/25,15:45:00,32-58.7500N,137-41.4100E,159,---,34.8457
323,2003/1/25,15:46:00,32-58.5200N,137-41.5100E,160,---,34.8443
324,2003/1/25,15:47:00,32-58.3200N,137-41.5900E,161,---,34.843
325,2003/1/25,15:48:00,32-58.0500N,137-41.7000E,160,---,34.8434
326,2003/1/25,15:49:00,32-57.8000N,137-41.8100E,159,---,34.845
327,2003/1/25,15:50:00,32-57.5600N,137-41.9100E,160,---,34.8449
328,2003/1/25,15:51:00,32-57.4000N,137-41.9800E,160,---,34.8455
329,2003/1/25,15:52:00,32-57.1000N,137-42.1100E,160,---,34.8471
330,2003/1/25,15:53:00,32-56.9300N,137-42.1800E,160,---,34.8476
331,2003/1/25,15:54:00,32-56.7100N,137-42.2700E,160,---,34.8457
332,2003/1/25,15:55:00,32-56.4700N,137-42.3700E,160,---,34.847
333,2003/1/25,15:56:00,32-56.1800N,137-42.4800E,159,---,34.8446
334,2003/1/25,15:57:00,32-55.9600N,137-42.5800E,160,---,34.8433
335,2003/1/25,15:58:00,32-55.7000N,137-42.6900E,160,---,34.8414
337,2003/1/25,16:00:00,32-55.2300N,137-42.8800E,160,---,34.8408
338,2003/1/25,16:01:00,32-54.9900N,137-42.9800E,160,---,34.84
339,2003/1/25,16:02:00,32-54.8000N,137-43.0500E,160,---,34.8429
340,2003/1/25,16:03:00,32-54.6700N,137-43.1100E,160,---,34.8447
341,2003/1/25,16:04:00,32-54.2800N,137-43.2700E,160,---,34.8424
342,2003/1/25,16:05:00,32-54.0900N,137-43.3400E,161,---,34.8426
343,2003/1/25,16:06:00,32-53.8100N,137-43.4600E,160,---,34.8437
344,2003/1/25,16:07:00,32-53.6700N,137-43.5200E,160,---,34.8429
345,2003/1/25,16:08:00,32-53.3500N,137-43.6500E,161,---,34.8426
346,2003/1/25,16:09:00,32-53.1200N,137-43.7400E,160,---,34.8395
347,2003/1/25,16:10:00,32-52.9000N,137-43.8300E,160,---,34.843
348,2003/1/25,16:11:00,32-52.7100N,137-43.9100E,160,---,34.8373
349,2003/1/25,16:12:00,32-52.4600N,137-44.0100E,161,---,34.8372
350,2003/1/25,16:13:00,32-52.2400N,137-44.1000E,162,---,34.8362
351,2003/1/25,16:14:00,32-52.0000N,137-44.1900E,161,---,34.8401
352,2003/1/25,16:15:00,32-51.7100N,137-44.3100E,161,---,34.8381
353,2003/1/25,16:16:00,32-51.4900N,137-44.4000E,160,---,34.8381
354,2003/1/25,16:17:00,32-51.2600N,137-44.4900E,160,---,34.8365
355,2003/1/25,16:18:00,32-51.0600N,137-44.5700E,161,---,34.8417
356,2003/1/25,16:19:00,32-50.7700N,137-44.6900E,161,---,34.8392
357,2003/1/25,16:20:00,32-50.5300N,137-44.7900E,161,---,34.8362
358,2003/1/25,16:21:00,32-50.3100N,137-44.8800E,160,---,34.8349
359,2003/1/25,16:22:00,32-50.0600N,137-44.9800E,160,---,34.8339
360,2003/1/25,16:23:00,32-49.8400N,137-45.0700E,161,---,34.8322
361,2003/1/25,16:24:00,32-49.6100N,137-45.1600E,161,---,34.8338
362,2003/1/25,16:25:00,32-49.3900N,137-45.2500E,161,---,34.8339
363,2003/1/25,16:26:00,32-49.1200N,137-45.3600E,161,---,34.8344
364,2003/1/25,16:27:00,32-48.9400N,137-45.4300E,161,---,34.8363
365,2003/1/25,16:28:00,32-48.7600N,137-45.5000E,160,---,34.8339
366,2003/1/25,16:29:00,32-48.4100N,137-45.6500E,159,---,34.8365
367,2003/1/25,16:30:00,32-48.2100N,137-45.7400E,160,---,34.8386
369,2003/1/25,16:32:00,32-47.7500N,137-45.9500E,159,---,34.8325
370,2003/1/25,16:33:00,32-47.5400N,137-46.0400E,159,---,34.8372
371,2003/1/25,16:34:00,32-47.2200N,137-46.1800E,159,---,34.8351
372,2003/1/25,16:35:00,32-46.9800N,137-46.2800E,159,---,34.8333
373,2003/1/25,16:36:00,32-46.7500N,137-46.3800E,159,---,34.8368
374,2003/1/25,16:37:00,32-46.5100N,137-46.4900E,159,---,34.8388
375,2003/1/25,16:38:00,32-46.3000N,137-46.5800E,159,---,34.8388
376,2003/1/25,16:39:00,32-46.1500N,137-46.6500E,159,---,34.8393
377,2003/1/25,16:40:00,32-45.8600N,137-46.7800E,158,---,34.8404
378,2003/1/25,16:41:00,32-45.5600N,137-46.9200E,156,---,34.84
379,2003/1/25,16:42:00,32-45.3300N,137-47.0400E,157,---,34.8414
380,2003/1/25,16:43:00,32-45.1700N,137-47.1200E,157,---,34.837
381,2003/1/25,16:44:00,32-45.0000N,137-47.2000E,157,---,34.8362
383,2003/1/25,16:46:00,32-44.4300N,137-47.4700E,158,---,34.8322
384,2003/1/25,16:47:00,32-44.1800N,137-47.5900E,158,---,34.8298
385,2003/1/25,16:48:00,32-43.9200N,137-47.7100E,158,---,34.8322
386,2003/1/25,16:49:00,32-43.6600N,137-47.8300E,159,---,34.829
387,2003/1/25,16:50:00,32-43.4600N,137-47.9200E,158,---,34.8335
388,2003/1/25,16:51:00,32-43.2000N,137-48.0400E,160,---,34.8308
389,2003/1/25,16:52:00,32-42.9700N,137-48.1300E,162,---,34.8345
390,2003/1/25,16:53:00,32-42.7000N,137-48.2300E,163,---,34.8336
391,2003/1/25,16:54:00,32-42.4900N,137-48.3000E,163,---,34.834
392,2003/1/25,16:55:00,32-42.2100N,137-48.4000E,163,---,34.8324
393,2003/1/25,16:56:00,32-41.9800N,137-48.4800E,163,---,34.8331